Escondido, California, United States (92025)
Lat: 33.12N, Lon: 117.09W
Wx Zone: CAZ050
Local Info
Past Weather Observations for Yesterday

NOTE: This archive is for the closest National Weather Service station to Escondido. Information may differ from the station used for current weather conditions.

Click here for Long-term Archive

Time Weather Temperature Dewpoint Humidity Pressure Winds Precip Visibility
23:53
Clear
66°F / 19°C 63°F / 17°C 88% 29.89 in
(1012 mb)
Calm - 7SM
22:53
Clear
66°F / 19°C 63°F / 17°C 88% 29.89 in
(1012 mb)
Calm - 7SM
21:53
Clear
68°F / 20°C 63°F / 17°C 83% 29.92 in
(1013 mb)
Calm - 7SM
20:53
Clear
68°F / 20°C 63°F / 17°C 83% 29.92 in
(1013 mb)
Calm - 8SM
19:53
Clear
68°F / 20°C 63°F / 17°C 83% 29.89 in
(1012 mb)
SW 3.5 mph
(SW 6 kph)
- 9SM
18:53
Clear
68°F / 20°C 64°F / 18°C 88% 29.89 in
(1012 mb)
W 4.6 mph
(W 7 kph)
- 7SM
17:53
Clear
70°F / 21°C 63°F / 17°C 78% 29.89 in
(1012 mb)
SSW 5.8 mph
(SSW 9 kph)
- 7SM
16:53
Clear
70°F / 21°C 64°F / 18°C 83% 29.89 in
(1012 mb)
SSW 5.8 mph
(SSW 9 kph)
- 8SM
15:53
Clear
72°F / 22°C 64°F / 18°C 78% 29.89 in
(1012 mb)
SSW 6.9 mph
(SSW 11 kph)
- 8SM
14:53
Clear
72°F / 22°C 64°F / 18°C 78% 29.89 in
(1012 mb)
SSW 9.2 mph
(SSW 15 kph)
- 9SM
13:53
Clear
73°F / 23°C 64°F / 18°C 74% 29.92 in
(1013 mb)
SW 6.9 mph
(SW 11 kph)
- 9SM
12:53
Clear
72°F / 22°C 64°F / 18°C 78% 29.92 in
(1013 mb)
SW 9.2 mph
(SW 15 kph)
- 8SM
11:53
Clear
73°F / 23°C 64°F / 18°C 74% 29.92 in
(1013 mb)
SSW 6.9 mph
(SSW 11 kph)
- 9SM
10:53
Clear
75°F / 24°C 64°F / 18°C 69% 29.92 in
(1013 mb)
SSW 8.1 mph
(SSW 13 kph)
- 8SM
09:53
Clear
73°F / 23°C 64°F / 18°C 74% 29.92 in
(1013 mb)
SSW 5.8 mph
(SSW 9 kph)
- 7SM
08:53
Clear
72°F / 22°C 64°F / 18°C 78% 29.92 in
(1013 mb)
Calm - 7SM
08:42
Partly Cloudy
Hazy
70°F / 21°C 64°F / 18°C 83% 29.92 in
(1013 mb)
S 3.5 mph
(S 6 kph)
- 6SM
07:53
Overcast
Fog And Mist
68°F / 20°C 64°F / 18°C 88% 29.92 in
(1013 mb)
SW 3.5 mph
(SW 6 kph)
- 6SM
07:02
Mostly Cloudy
Fog And Mist
68°F / 20°C 64°F / 18°C 88% 29.92 in
(1013 mb)
SW 4.6 mph
(SW 7 kph)
- 6SM
06:53
Partly Cloudy
Fog And Mist
68°F / 20°C 64°F / 18°C 88% 29.92 in
(1013 mb)
SW 4.6 mph
(SW 7 kph)
- 5SM
05:53
Clear
Fog And Mist
66°F / 19°C 63°F / 17°C 88% 29.89 in
(1012 mb)
SSW 3.5 mph
(SSW 6 kph)
- 6SM
04:53
Clear
Fog And Mist
66°F / 19°C 63°F / 17°C 88% 29.89 in
(1012 mb)
Calm - 6SM
03:53
Clear
66°F / 19°C 63°F / 17°C 88% 29.86 in
(1011 mb)
Calm - 8SM
02:53
Clear
66°F / 19°C 63°F / 17°C 88% 29.86 in
(1011 mb)
Calm - 9SM
01:53
Clear
66°F / 19°C 63°F / 17°C 88% 29.89 in
(1012 mb)
Calm - 9SM
00:53
Clear
68°F / 20°C 63°F / 17°C 83% 29.89 in
(1012 mb)
Calm - 9SM
Time Weather Temperature Dewpoint Humidity Pressure Winds Precip Visibility


Weather for websites

WeatherForYou.com, LLC is not responsible for any damages or problems caused by this service. Current weather conditions are obtained from the closest station including government and personal stations which may have varying degrees of accuracy. Weather forecasts are derived from the NOAA NDFD. Like all things, this site belongs to Jesus Christ... He just trusts us to maintain it. If you have any questions or comments email webmaster@weatherforyou.com

Copyright © 2015, WeatherForYou.com LLC. All rights reserved.